FW4391 Weather Reports


time (UTC)temp
C
wind
direction
speed
KPH
gust
KPH
rain 1hr
cm
rain 24hr
cm
rain mn
cm
humidity
%
barometer
mb
20260507182546 31 360 11.3 20.9 0.00 0.00 0.00 11 1008.8
20260507182446 31 360 14.5 20.9 0.00 0.00 0.00 11 1008.7
20260507182051 32 360 8.0 20.9 0.00 0.00 0.00 11 1008.8
20260507181545 31 360 6.4 19.3 0.00 0.00 0.00 11 1008.9
20260507181446 31 360 8.0 20.9 0.00 0.00 0.00 11 1008.9
20260507181046 31 360 8.0 20.9 0.00 0.00 0.00 11 1009.1
20260507180946 31 360 6.4 20.9 0.00 0.00 0.00 11 1009.1
20260507180549 31 360 8.0 17.7 0.00 0.00 0.00 12 1009.0
20260507180446 31 360 3.2 17.7 0.00 0.00 0.00 11 1009.2
20260507180049 31 360 6.4 16.1 0.00 0.00 0.00 11 1009.2
20260507175947 31 360 4.8 20.9 0.00 0.00 0.00 11 1009.2
20260507175550 30 360 4.8 20.9 0.00 0.00 0.00 11 1009.3
20260507175446 30 360 8.0 20.9 0.00 0.00 0.00 10 1009.2
20260507175047 30 360 6.4 20.9 0.00 0.00 0.00 11 1009.3
20260507174946 30 360 6.4 20.9 0.00 0.00 0.00 11 1009.3
20260507174549 30 360 12.9 20.9 0.00 0.00 0.00 12 1009.3
20260507174446 30 360 6.4 19.3 0.00 0.00 0.00 11 1009.3
20260507174046 30 360 6.4 20.9 0.00 0.00 0.00 10 1009.3
20260507173946 30 360 4.8 20.9 0.00 0.00 0.00 10 1009.2
20260507173546 30 360 8.0 20.9 0.00 0.00 0.00 11 1009.3
20260507173446 30 360 14.5 20.9 0.00 0.00 0.00 10 1009.3
20260507173046 30 360 12.9 20.9 0.00 0.00 0.00 10 1009.5
20260507172946 30 360 9.7 20.9 0.00 0.00 0.00 11 1009.5
20260507172548 30 360 9.7 17.7 0.00 0.00 0.00 10 1009.6
20260507172446 30 360 12.9 17.7 0.00 0.00 0.00 10 1009.5
20260507172047 29 360 4.8 17.7 0.00 0.00 0.00 10 1009.7
20260507171945 29 360 4.8 17.7 0.00 0.00 0.00 10 1009.6
20260507171546 29 360 8.0 17.7 0.00 0.00 0.00 12 1009.8
20260507171446 29 360 6.4 20.9 0.00 0.00 0.00 13 1009.7
20260507171046 29 360 9.7 20.9 0.00 0.00 0.00 12 1009.8
20260507170945 29 360 8.0 20.9 0.00 0.00 0.00 13 1009.7
20260507170547 30 360 4.8 16.1 0.00 0.00 0.00 15 1009.8
20260507170051 30 360 8.0 16.1 0.00 0.00 0.00 16 1009.8
20260507165946 30 360 6.4 16.1 0.00 0.00 0.00 16 1009.8
20260507165546 29 360 0.0 16.1 0.00 0.00 0.00 15 1009.8
20260507165446 29 360 0.0 16.1 0.00 0.00 0.00 15 1009.8
20260507165046 29 360 9.7 16.1 0.00 0.00 0.00 15 1009.8
20260507164947 29 360 14.5 16.1 0.00 0.00 0.00 15 1009.9
20260507164557 28 360 4.8 16.1 0.00 0.00 0.00 15 1009.9
20260507164046 28 360 8.0 19.3 0.00 0.00 0.00 16 1010.0
20260507163946 28 360 4.8 19.3 0.00 0.00 0.00 16 1009.9
20260507163547 28 360 4.8 19.3 0.00 0.00 0.00 18 1010.0
20260507163446 28 360 8.0 19.3 0.00 0.00 0.00 18 1010.0
20260507163046 28 360 6.4 14.5 0.00 0.00 0.00 20 1010.0
20260507162948 28 360 8.0 14.5 0.00 0.00 0.00 21 1009.9
20260507162546 28 360 4.8 12.9 0.00 0.00 0.00 21 1010.2
20260507162446 28 360 3.2 12.9 0.00 0.00 0.00 20 1010.0
20260507162046 27 360 4.8 14.5 0.00 0.00 0.00 21 1010.2
20260507161945 27 360 3.2 14.5 0.00 0.00 0.00 21 1010.1
20260507161546 27 360 6.4 14.5 0.00 0.00 0.00 21 1010.1
20260507161446 27 360 8.0 14.5 0.00 0.00 0.00 22 1010.1
20260507161046 26 360 0.0 6.4 0.00 0.00 0.00 23 1010.2
20260507160946 26 360 0.0 6.4 0.00 0.00 0.00 24 1010.1
20260507160546 26 360 3.2 9.7 0.00 0.00 0.00 25 1010.2
20260507160446 26 360 3.2 9.7 0.00 0.00 0.00 25 1010.1
20260507160047 26 360 3.2 9.7 0.00 0.00 0.00 26 1010.2
20260507155946 26 360 1.6 9.7 0.00 0.00 0.00 26 1010.2
20260507155547 26 360 4.8 9.7 0.00 0.00 0.00 25 1010.2
20260507155446 26 360 8.0 9.7 0.00 0.00 0.00 25 1010.1
20260507155047 26 360 6.4 9.7 0.00 0.00 0.00 24 1010.2
20260507154945 26 360 8.0 8.0 0.00 0.00 0.00 24 1010.2
20260507154552 25 360 6.4 8.0 0.00 0.00 0.00 24 1010.2
20260507154446 25 360 6.4 8.0 0.00 0.00 0.00 25 1010.3
20260507154047 26 360 4.8 12.9 0.00 0.00 0.00 27 1010.3
20260507153945 26 360 6.4 12.9 0.00 0.00 0.00 27 1010.3
20260507153546 25 360 4.8 12.9 0.00 0.00 0.00 25 1010.4
20260507153446 25 360 6.4 8.0 0.00 0.00 0.00 25 1010.3
20260507153046 25 360 0.0 0.0 0.00 0.00 0.00 27 1010.3
20260507152946 25 360 0.0 0.0 0.00 0.00 0.00 27 1010.2
20260507152546 25 360 0.0 1.6 0.00 0.00 0.00 27 1010.3
20260507152446 25 360 0.0 1.6 0.00 0.00 0.00 27 1010.2
20260507152048 25 32 0.0 1.6 0.00 0.00 0.00 28 1010.2
20260507151946 25 31 0.0 1.6 0.00 0.00 0.00 29 1010.3
20260507151547 24 360 0.0 3.2 0.00 0.00 0.00 29 1010.3
20260507151446 24 360 0.0 3.2 0.00 0.00 0.00 30 1010.1
20260507151046 24 360 0.0 3.2 0.00 0.00 0.00 29 1010.2
20260507150946 23 360 0.0 4.8 0.00 0.00 0.00 30 1010.2
20260507150547 23 360 0.0 4.8 0.00 0.00 0.00 30 1010.3
20260507150445 23 360 1.6 4.8 0.00 0.00 0.00 30 1010.2
20260507150046 23 360 1.6 6.4 0.00 0.00 0.00 31 1010.2
20260507145946 23 360 1.6 6.4 0.00 0.00 0.00 31 1010.3
20260507145545 23 360 3.2 6.4 0.00 0.00 0.00 30 1010.3
20260507145446 23 360 3.2 6.4 0.00 0.00 0.00 29 1010.2
20260507145046 23 360 1.6 4.8 0.00 0.00 0.00 30 1010.2
20260507144546 23 360 1.6 6.4 0.00 0.00 0.00 30 1010.3
20260507144446 23 360 3.2 6.4 0.00 0.00 0.00 30 1010.2
20260507144048 23 360 3.2 8.0 0.00 0.00 0.00 29 1010.3
20260507143946 23 360 4.8 8.0 0.00 0.00 0.00 28 1010.3
20260507143548 23 360 4.8 8.0 0.00 0.00 0.00 29 1010.4
20260507143446 23 360 4.8 8.0 0.00 0.00 0.00 29 1010.3
20260507143048 23 360 3.2 4.8 0.00 0.00 0.00 31 1010.3
20260507142546 22 360 1.6 4.8 0.00 0.00 0.00 27 1010.3
20260507142445 22 360 1.6 4.8 0.00 0.00 0.00 27 1010.3
20260507142046 22 360 3.2 6.4 0.00 0.00 0.00 27 1010.3
20260507141947 22 360 3.2 6.4 0.00 0.00 0.00 27 1010.3
20260507141552 22 360 3.2 6.4 0.00 0.00 0.00 27 1010.4
20260507141446 22 360 4.8 6.4 0.00 0.00 0.00 28 1010.2
20260507141046 22 360 1.6 4.8 0.00 0.00 0.00 27 1010.4
20260507140946 22 360 1.6 4.8 0.00 0.00 0.00 28 1010.3
20260507140548 22 360 1.6 6.4 0.00 0.00 0.00 28 1010.3
20260507140046 21 360 3.2 6.4 0.00 0.00 0.00 28 1010.3
20260507135546 21 360 1.6 6.4 0.00 0.00 0.00 28 1010.2
20260507135446 21 360 4.8 6.4 0.00 0.00 0.00 28 1010.2
20260507135046 21 360 0.0 8.0 0.00 0.00 0.00 29 1010.2
20260507134946 20 360 0.0 8.0 0.00 0.00 0.00 29 1010.1
20260507134546 20 360 3.2 8.0 0.00 0.00 0.00 29 1010.2
20260507134446 20 360 4.8 8.0 0.00 0.00 0.00 29 1010.2
20260507134046 20 360 4.8 6.4 0.00 0.00 0.00 29 1010.1
20260507133946 20 360 4.8 6.4 0.00 0.00 0.00 29 1010.0
20260507133547 20 360 4.8 9.7 0.00 0.00 0.00 28 1010.1
20260507133446 20 360 3.2 9.7 0.00 0.00 0.00 28 1010.0
20260507133100 20 360 4.8 9.7 0.00 0.00 0.00 29 1010.0
20260507132945 20 360 8.0 8.0 0.00 0.00 0.00 29 1010.0
20260507132545 20 360 0.0 1.6 0.00 0.00 0.00 29 1010.0
20260507132446 20 360 0.0 0.0 0.00 0.00 0.00 29 1009.9
20260507132046 20 360 0.0 0.0 0.00 0.00 0.00 30 1009.9
20260507131946 20 360 0.0 1.6 0.00 0.00 0.00 30 1009.8
20260507131552 20 360 0.0 3.2 0.00 0.00 0.00 30 1009.9
20260507131446 20 360 0.0 3.2 0.00 0.00 0.00 30 1009.8
20260507131046 20 360 0.0 3.2 0.00 0.00 0.00 30 1010.0
20260507130945 20 360 1.6 3.2 0.00 0.00 0.00 30 1009.9
20260507130545 20 360 1.6 8.0 0.00 0.00 0.00 30 1009.9
20260507130446 20 360 1.6 8.0 0.00 0.00 0.00 30 1009.8
20260507130103 20 360 3.2 8.0 0.00 0.00 0.00 30 1009.9
20260507125546 20 360 3.2 6.4 0.00 0.00 0.00 30 1009.8
20260507125446 20 360 4.8 4.8 0.00 0.00 0.00 30 1009.8
20260507125045 20 360 0.0 0.0 0.00 0.00 0.00 30 1009.8
20260507124945 20 360 0.0 0.0 0.00 0.00 0.00 30 1009.7
20260507124546 20 360 0.0 0.0 0.00 0.00 0.00 30 1009.8
20260507124446 20 360 0.0 0.0 0.00 0.00 0.00 30 1009.7
20260507124046 20 360 0.0 0.0 0.00 0.00 0.00 30 1009.8
20260507123946 20 360 0.0 0.0 0.00 0.00 0.00 30 1009.8
20260507123546 20 360 0.0 0.0 0.00 0.00 0.00 30 1009.7
20260507123445 20 360 0.0 0.0 0.00 0.00 0.00 30 1009.7
20260507123046 20 360 0.0 0.0 0.00 0.00 0.00 30 1009.7
20260507122546 20 360 0.0 1.6 0.00 0.00 0.00 30 1009.7
20260507122446 20 360 0.0 1.6 0.00 0.00 0.00 30 1009.6
20260507122046 20 360 0.0 8.0 0.00 0.00 0.00 30 1009.7
20260507121945 20 360 0.0 8.0 0.00 0.00 0.00 30 1009.6
20260507121602 20 360 1.6 8.0 0.00 0.00 0.00 30 1009.7
20260507121446 20 360 3.2 8.0 0.00 0.00 0.00 30 1009.7
20260507121046 20 360 3.2 8.0 0.00 0.00 0.00 30 1009.7
20260507120946 20 360 3.2 8.0 0.00 0.00 0.00 30 1009.6
20260507120547 20 360 4.8 8.0 0.00 0.00 0.00 30 1009.7
20260507120445 20 360 6.4 8.0 0.00 0.00 0.00 30 1009.5
20260507120055 20 360 1.6 8.0 0.00 0.00 0.00 30 1009.7
20260507115946 20 360 1.6 8.0 0.00 0.00 0.00 30 1009.6
20260507115546 20 360 3.2 8.0 0.00 0.00 0.00 30 1009.6
20260507115446 20 360 4.8 8.0 0.00 0.00 0.00 30 1009.6
20260507115049 20 360 3.2 6.4 0.00 0.00 0.00 31 1009.7
20260507114627 20 360 3.2 9.7 0.00 0.00 0.00 30 1009.8
20260507114049 20 360 6.4 9.7 0.00 0.00 0.00 30 1009.7
20260507113945 20 360 6.4 9.7 0.00 0.00 0.00 30 1009.8
20260507113548 20 360 4.8 9.7 0.00 0.00 0.00 30 1009.8
20260507113446 20 360 6.4 9.7 0.00 0.00 0.00 30 1009.8
20260507113046 20 360 4.8 9.7 0.00 0.00 0.00 30 1009.8
20260507112945 20 360 6.4 8.0 0.00 0.00 0.00 30 1009.7
20260507112546 20 360 3.2 8.0 0.00 0.00 0.00 30 1009.8
20260507112445 20 360 4.8 6.4 0.00 0.00 0.00 30 1009.8
20260507112045 20 360 3.2 6.4 0.00 0.00 0.00 30 1009.9
20260507111547 20 360 4.8 9.7 0.00 0.00 0.00 30 1009.7
20260507111445 20 360 4.8 9.7 0.00 0.00 0.00 30 1009.8
20260507111046 20 360 3.2 9.7 0.00 0.00 0.00 30 1009.9
20260507110946 20 360 4.8 9.7 0.00 0.00 0.00 30 1009.8
20260507110546 20 360 1.6 4.8 0.00 0.00 0.00 28 1009.8
20260507110445 20 360 3.2 4.8 0.00 0.00 0.00 28 1009.7
20260507110046 20 360 0.0 4.8 0.00 0.00 0.00 29 1009.9
20260507105946 20 360 0.0 4.8 0.00 0.00 0.00 29 1009.9
20260507105545 20 360 1.6 3.2 0.00 0.00 0.00 29 1009.9
20260507105446 20 360 1.6 4.8 0.00 0.00 0.00 29 1010.0
20260507105046 20 360 1.6 4.8 0.00 0.00 0.00 30 1010.1
20260507104945 20 360 3.2 4.8 0.00 0.00 0.00 30 1010.0
20260507104547 20 360 3.2 4.8 0.00 0.00 0.00 30 1010.0
20260507104445 20 360 3.2 4.8 0.00 0.00 0.00 31 1010.1
20260507104046 19 360 1.6 4.8 0.00 0.00 0.00 31 1010.1
20260507103545 19 360 0.0 4.8 0.00 0.00 0.00 32 1010.2
20260507103446 19 360 0.0 4.8 0.00 0.00 0.00 32 1010.1
20260507103046 19 360 1.6 4.8 0.00 0.00 0.00 32 1010.2
20260507102945 19 360 1.6 4.8 0.00 0.00 0.00 32 1010.2
20260507102547 19 360 0.0 4.8 0.00 0.00 0.00 33 1010.3
20260507102445 19 360 0.0 4.8 0.00 0.00 0.00 33 1010.2
20260507102046 19 360 1.6 4.8 0.00 0.00 0.00 33 1010.2
20260507101548 19 360 0.0 6.4 0.00 0.00 0.00 32 1010.2
20260507101445 19 360 0.0 6.4 0.00 0.00 0.00 32 1010.2
20260507101046 19 360 1.6 4.8 0.00 0.00 0.00 32 1010.2
20260507100946 19 360 1.6 4.8 0.00 0.00 0.00 32 1010.2
20260507100546 20 360 1.6 6.4 0.00 0.00 0.00 32 1010.3
20260507100446 20 360 3.2 6.4 0.00 0.00 0.00 32 1010.1
20260507100047 20 360 1.6 6.4 0.00 0.00 0.00 31 1010.2
20260507095946 20 360 3.2 6.4 0.00 0.00 0.00 32 1010.3
20260507095546 20 360 3.2 6.4 0.00 0.00 0.00 32 1010.1
20260507095445 20 360 3.2 4.8 0.00 0.00 0.00 32 1010.1
20260507095045 20 360 1.6 12.9 0.00 0.00 0.00 32 1010.0
20260507094946 20 360 3.2 12.9 0.00 0.00 0.00 32 1010.0
20260507094546 20 360 4.8 14.5 0.00 0.00 0.00 31 1010.2
20260507094446 20 360 4.8 16.1 0.00 0.00 0.00 31 1010.1
20260507094045 20 360 8.0 16.1 0.00 0.00 0.00 30 1010.2
20260507093946 20 360 9.7 16.1 0.00 0.00 0.00 31 1010.1
20260507093546 20 360 4.8 9.7 0.00 0.00 0.00 29 1010.2
20260507093446 20 360 4.8 8.0 0.00 0.00 0.00 29 1010.1
20260507093049 20 360 3.2 8.0 0.00 0.00 0.00 29 1010.1
20260507092946 20 360 4.8 8.0 0.00 0.00 0.00 29 1010.1
20260507092546 20 360 4.8 9.7 0.00 0.00 0.00 30 1010.0
20260507092446 20 360 4.8 9.7 0.00 0.00 0.00 31 1010.0
20260507092045 20 360 4.8 12.9 0.00 0.00 0.00 30 1010.1
20260507091945 20 360 8.0 12.9 0.00 0.00 0.00 31 1010.0
20260507091547 20 360 6.4 12.9 0.00 0.00 0.00 31 1010.0
20260507091445 20 360 6.4 12.9 0.00 0.00 0.00 31 1009.9
20260507091046 20 360 8.0 16.1 0.00 0.00 0.00 31 1010.1
20260507090545 20 360 6.4 16.1 0.00 0.00 0.00 32 1010.1
20260507090445 20 360 8.0 16.1 0.00 0.00 0.00 32 1010.0
20260507090048 20 360 6.4 9.7 0.00 0.00 0.00 31 1010.1
20260507085946 20 360 9.7 9.7 0.00 0.00 0.00 31 1010.0
20260507085546 21 360 4.8 9.7 0.00 0.00 0.00 33 1010.2
20260507085445 21 360 6.4 9.7 0.00 0.00 0.00 33 1010.0
20260507085047 21 360 6.4 9.7 0.00 0.00 0.00 32 1010.1
20260507084947 21 360 6.4 9.7 0.00 0.00 0.00 32 1010.1
20260507084555 21 360 4.8 9.7 0.00 0.00 0.00 32 1010.1
20260507084445 21 360 4.8 8.0 0.00 0.00 0.00 32 1010.1
20260507084050 21 360 3.2 9.7 0.00 0.00 0.00 31 1010.2
20260507083945 21 360 4.8 9.7 0.00 0.00 0.00 31 1010.1
20260507083546 22 360 4.8 9.7 0.00 0.00 0.00 29 1010.2
20260507083049 22 360 6.4 9.7 0.00 0.00 0.00 28 1010.3
20260507082946 23 360 4.8 9.7 0.00 0.00 0.00 27 1010.2
20260507082546 23 360 6.4 9.7 0.00 0.00 0.00 26 1010.3
20260507082046 24 360 4.8 16.1 0.00 0.00 0.00 24 1010.2
20260507081945 24 360 6.4 17.7 0.00 0.00 0.00 24 1010.1
20260507081547 24 360 4.8 17.7 0.00 0.00 0.00 24 1010.1
20260507081445 25 360 3.2 17.7 0.00 0.00 0.00 23 1010.2
20260507081046 24 360 9.7 17.7 0.00 0.00 0.00 21 1010.2
20260507080546 24 360 8.0 16.1 0.00 0.00 0.00 21 1010.3
20260507080445 24 360 9.7 16.1 0.00 0.00 0.00 20 1010.2
20260507080100 24 360 6.4 16.1 0.00 0.00 0.00 21 1010.3
20260507075946 24 360 6.4 16.1 0.00 0.00 0.00 21 1010.3
20260507075546 24 360 8.0 16.1 0.00 0.00 0.00 21 1010.3
20260507075046 24 360 6.4 16.1 0.00 0.00 0.00 21 1010.4
20260507074946 24 360 9.7 16.1 0.00 0.00 0.00 21 1010.3
20260507074548 24 360 6.4 16.1 0.00 0.00 0.00 21 1010.3
20260507074046 24 360 9.7 19.3 0.00 0.00 0.00 21 1010.4
20260507073546 24 360 6.4 19.3 0.00 0.00 0.00 21 1010.4
20260507073446 24 360 6.4 19.3 0.00 0.00 0.00 21 1010.2
20260507073021 23 360 9.7 17.7 0.00 0.00 0.00 22 1010.5
20260507072814 23 360 16.1 16.1 0.00 0.00 0.00 22 1010.4
20260507072506 23 360 4.8 12.9 0.00 0.00 0.00 24 1010.5
20260507072259 23 360 9.7 12.9 0.00 0.00 0.00 23 1010.4
20260507072053 23 360 4.8 14.5 0.00 0.00 0.00 23 1010.4
20260507071745 23 360 4.8 14.5 0.00 0.00 0.00 23 1010.3
20260507071538 23 360 6.4 14.5 0.00 0.00 0.00 24 1010.5
20260507071229 23 360 9.7 14.5 0.00 0.00 0.00 24 1010.3
20260507071024 24 360 8.0 14.5 0.00 0.00 0.00 22 1010.4
20260507070714 24 360 8.0 14.5 0.00 0.00 0.00 23 1010.3
20260507070509 24 360 6.4 16.1 0.00 0.00 0.00 23 1010.4
20260507070159 25 360 3.2 17.7 0.00 0.00 0.00 21 1010.4
20260507070057 25 360 4.8 17.7 0.00 0.00 0.00 22 1010.5
20260507065644 25 360 14.5 19.3 0.00 0.00 0.00 20 1010.4
20260507065544 25 360 9.7 19.3 0.00 0.00 0.00 20 1010.5
20260507065129 25 360 14.5 17.7 0.00 0.00 0.00 20 1010.5
20260507065027 25 360 12.9 17.7 0.00 0.00 0.00 20 1010.4
20260507064614 25 360 16.1 19.3 0.00 0.00 0.00 20 1010.3
20260507064511 25 360 9.7 19.3 0.00 0.00 0.00 20 1010.4
20260507064100 25 360 8.0 19.3 0.00 0.00 0.00 20 1010.5
20260507064059 25 360 8.0 19.3 0.00 0.00 0.00 20 1010.4
20260507063545 25 360 8.0 19.3 0.00 0.00 0.00 20 1010.5
20260507063029 25 360 8.0 17.7 0.00 0.00 0.00 20 1010.4
20260507062515 25 360 8.0 16.1 0.00 0.00 0.00 20 1010.4
20260507062102 25 360 9.7 17.7 0.00 0.00 0.00 20 1010.5
20260507061959 25 360 12.9 19.3 0.00 0.00 0.00 20 1010.4
20260507061548 25 360 9.7 20.9 0.00 0.00 0.00 20 1010.4
20260507061444 25 360 6.4 20.9 0.00 0.00 0.00 20 1010.4
20260507061033 25 360 11.3 20.9 0.00 0.00 0.00 20 1010.5
20260507060929 25 360 9.7 17.7 0.00 0.00 0.00 20 1010.4
20260507060517 25 360 11.3 17.7 0.00 0.00 0.00 20 1010.5
20260507060414 25 360 9.7 17.7 0.00 0.00 0.00 20 1010.4
20260507060004 25 360 9.7 19.3 0.00 0.00 0.00 20 1010.5
20260507055859 25 360 9.7 19.3 0.00 0.00 0.00 20 1010.4
20260507055551 25 360 9.7 19.3 0.00 0.00 0.00 20 1010.4
20260507055344 25 360 12.9 19.3 0.00 0.00 0.00 20 1010.5
20260507055035 25 360 8.0 17.7 0.00 0.00 0.00 20 1010.6
20260507054829 25 360 8.0 17.7 0.00 0.00 0.00 20 1010.5
20260507054527 26 360 11.3 19.3 0.00 0.00 0.00 20 1010.5
20260507054314 26 360 12.9 19.3 0.00 0.00 0.00 20 1010.4
20260507054005 26 360 9.7 19.3 0.00 0.00 0.00 20 1010.5
20260507053555 26 360 9.7 16.1 0.00 0.00 0.00 20 1010.5
20260507053244 25 360 14.5 17.7 0.00 0.00 0.00 20 1010.5
20260507053039 25 360 11.3 17.7 0.00 0.00 0.00 20 1010.5
20260507052523 25 360 6.4 17.7 0.00 0.00 0.00 20 1010.5
20260507052009 26 360 11.3 16.1 0.00 0.00 0.00 20 1010.5
20260507051659 26 360 8.0 16.1 0.00 0.00 0.00 20 1010.4
20260507051604 26 360 9.7 14.5 0.00 0.00 0.00 20 1010.4
20260507051041 26 360 6.4 17.7 0.00 0.00 0.00 20 1010.4
20260507050628 26 360 12.9 17.7 0.00 0.00 0.00 20 1010.4
20260507050527 26 360 6.4 17.7 0.00 0.00 0.00 20 1010.4
20260507050011 26 360 6.4 14.5 0.00 0.00 0.00 20 1010.3
20260507045559 26 360 6.4 14.5 0.00 0.00 0.00 20 1010.3
20260507045044 26 360 8.0 14.5 0.00 0.00 0.00 20 1010.4
20260507044530 26 360 9.7 14.5 0.00 0.00 0.00 20 1010.3
20260507044017 26 360 3.2 14.5 0.00 0.00 0.00 20 1010.3
20260507043502 26 360 6.4 12.9 0.00 0.00 0.00 20 1010.3
20260507043050 26 360 6.4 12.9 0.00 0.00 0.00 20 1010.3
20260507042946 26 360 8.0 12.9 0.00 0.00 0.00 20 1010.3
20260507042537 26 360 4.8 14.5 0.00 0.00 0.00 20 1010.3
20260507042020 26 360 8.0 16.1 0.00 0.00 0.00 20 1010.2
20260507041505 26 360 6.4 16.1 0.00 0.00 0.00 20 1010.2
20260507041401 26 360 3.2 16.1 0.00 0.00 0.00 20 1010.1
20260507041053 26 360 6.4 17.7 0.00 0.00 0.00 20 1010.1
20260507040540 26 360 11.3 19.3 0.00 0.00 0.00 20 1010.1
20260507040331 26 360 16.1 19.3 0.00 0.00 0.00 20 1010.0
20260507040023 26 360 11.3 19.3 0.00 0.00 0.00 20 1010.0
20260507035817 26 360 4.8 19.3 0.00 0.00 0.00 20 1010.0
20260507035508 26 360 8.0 17.7 0.00 0.00 0.00 20 1010.0
20260507035301 26 360 8.0 17.7 0.00 0.00 0.00 19 1009.9
20260507035056 26 360 9.7 16.1 0.00 0.00 0.00 19 1009.9
20260507034746 26 360 6.4 16.1 0.00 0.00 0.00 19 1009.8
20260507034541 26 360 6.4 16.1 0.00 0.00 0.00 19 1009.8
20260507034238 26 360 8.0 16.1 0.00 0.00 0.00 19 1009.8
20260507034026 26 360 6.4 16.1 0.00 0.00 0.00 19 1009.8
20260507033717 26 360 8.0 12.9 0.00 0.00 0.00 19 1009.7
20260507033514 26 360 9.7 12.9 0.00 0.00 0.00 19 1009.7
20260507033105 27 360 6.4 12.9 0.00 0.00 0.00 19 1009.7